sat.trackr.live / text

‹ back to catalog

STARLINK-35438

NORAD 66347 · 2025-253AE

PAYLOAD ACTIVE UNKNOWN

§ Identity

Operator
Country
US
Launch date
2025-11-06
Launch site
AFETR
Launch vehicle
Mass (kg)
RCS (m²)

Purposes: comms

External: N2YO · Heavens-Above · Gunter

§ Orbital elements

Epoch: 2026-05-25T00:46:58.825056Z

Period
94.26 min
Inclination
42.9989°
Eccentricity
0.0000535
Mean motion
15.27612464 rev/d
Perigee alt
482.6 km
Apogee alt
483.3 km
Semi-major
6,861.1 km
B*
7.4172e-4
RAAN
141.0531°
Arg perigee
314.0513°
Mean anomaly
46.0294°
Rev number
3,192

§ Raw data

STARLINK-354381 66347U 25253AE  26145.03262529  .00020225  00000+0  74172-3 0  99942 66347  42.9989 141.0531 0000535 314.0513  46.0294 15.27612464 31922

JSON: /api/v1/satellites/66347 · /tle

For live sub-satellite position, see the globe view (requires WebGL).

§ Visibility from observer

Set your observer location to see the next 7 days of passes ≥ 10°. The values pass through the URL so the page stays shareable.

No JS? Fill the form by hand. The geolocation button needs JavaScript.